Chicago/Rockford International Airport

KRFD · Illinois, Verenigde Staten

METAR historie KRFD · Chicago/Rockford International Airport

Hieronder zie je METAR's van de afgelopen dagen. Kies een jaar om door oudere METAR's te bladeren, vanaf het jaar 2007.

29 mei 2024

Tijd Code Weer Temp. Zicht Plafond Wind METAR/SPECI
11:54
V
21 °C 10 mi 3.400 ft 320° 320° 10 kt METAR KRFD 291654Z 32010KT 10SM BKN034 21/11 A3023 RMK AO2 SLP235 T02060106 PNO $
10:54
M
20 °C 10 mi 3.000 ft 340° 340° 11 kt METAR KRFD 291554Z 34011KT 10SM BKN030 20/12 A3023 RMK AO2 SLP235 T02000117 $
09:54
V
18 °C 10 mi - 340° 340° 8 kt METAR KRFD 291454Z 34008KT 10SM FEW030 18/11 A3022 RMK AO2 SLP233 T01830111 50012
08:54
V
17 °C 10 mi - Var Var 5 kt METAR KRFD 291354Z VRB05KT 10SM CLR 17/11 A3022 RMK AO2 SLP233 T01670111
07:54
V
15 °C 10 mi - 310° 310° 7 kt METAR KRFD 291254Z 31007KT 10SM CLR 15/11 A3021 RMK AO2 SLP231 T01500106
06:54
V
13 °C 10 mi - 340° 340° 6 kt METAR KRFD 291154Z 34006KT 10SM FEW080 13/10 A3019 RMK AO2 SLP222 70013 T01330100 10139 20111 53020 $
05:54
V
11 °C 10 mi - 330° 330° 5 kt METAR KRFD 291054Z 33005KT 10SM FEW060 11/09 A3016 RMK AO2 SLP212 T01110094 $
04:54
V
11 °C 10 mi - 330° 330° 5 kt METAR KRFD 290954Z 33005KT 10SM FEW060 11/09 A3013 RMK AO2 SLP205 T01110094 $
03:54
V
12 °C 10 mi - 330° 330° 6 kt METAR KRFD 290854Z 33006KT 10SM FEW060 12/09 A3012 RMK AO2 SLP201 T01170094 50006 $
02:54
V
13 °C 10 mi 6.000 ft 330° 330° 6 kt METAR KRFD 290754Z 33006KT 10SM OVC060 13/11 A3013 RMK AO2 SLP201 T01330106 $
01:54
V
14 °C 10 mi 4.600 ft 340° 340° 8 kt METAR KRFD 290654Z 34008KT 10SM OVC046 14/11 A3012 RMK AO2 SLP197 T01390106 $
00:54
V
14 °C 10 mi 8.500 ft 350° 350° 9 kt METAR KRFD 290554Z 35009KT 10SM SCT016 BKN085 14/11 A3011 RMK AO2 SLP194 60000 T01390106 10167 20139 402170117 51007 $
00:31
V
14 °C 10 mi 8.000 ft 350° 350° 9 kt METAR KRFD 290531Z 35009KT 10SM SCT017 BKN080 14/11 A3011 RMK AO2 T01440106 $

28 mei 2024

Tijd Code Weer Temp. Zicht Plafond Wind METAR/SPECI
23:54
M
14 °C 10 mi 1.900 ft 360° 360° 8 kt METAR KRFD 290454Z 36008KT 10SM BKN019 OVC026 14/11 A3011 RMK AO2 RAE08 SLP194 P0000 T01440106 $
23:03
M
14 °C 10 mi 1.900 ft 330° 330° 8 kt METAR KRFD 290403Z 33008KT 10SM -RA BKN019 OVC060 14/11 A3009 RMK AO2 P0000 T01440106 $
22:54
V
14 °C 10 mi 6.000 ft 320° 320° 9 kt METAR KRFD 290354Z 32009KT 10SM -RA SCT019 BKN060 OVC075 14/10 A3009 RMK AO2 RAB53 SLP189 P0000 T01440100 $
21:54
V
15 °C 10 mi 7.500 ft 320° 320° 9 kt METAR KRFD 290254Z 32009KT 10SM SCT031 BKN075 BKN110 15/10 A3008 RMK AO2 SLP186 T01500100 53017 $
20:54
V
15 °C 10 mi - 300° 300° 8 kt METAR KRFD 290154Z 30008KT 10SM FEW027 SCT060 15/11 A3006 RMK AO2 SLP179 T01500106 $
19:54
V
16 °C 10 mi 6.000 ft 320° 320° 11 kt METAR KRFD 290054Z 32011KT 10SM FEW028 BKN060 16/10 A3005 RMK AO2 SLP176 T01610100 $
18:54
V
17 °C 10 mi - 320° 320° 16 - 22 kt METAR KRFD 282354Z 32016G22KT 10SM FEW027 FEW065 17/10 A3003 RMK AO2 SLP170 60013 T01670100 10211 20161 51008 $
17:54
V
17 °C 10 mi - 310° 310° 13 kt METAR KRFD 282254Z 31013KT 10SM FEW028 FEW070 SCT250 17/11 A3002 RMK AO2 SLP166 T01720111 $
16:54
V
17 °C 10 mi 6.000 ft 310° 310° 15 - 24 kt METAR KRFD 282154Z 31015G24KT 10SM SCT029 BKN060 BKN110 17/11 A3004 RMK AO2 PK WND 31033/2132 SLP172 T01670106 $
15:54
V
18 °C 10 mi 7.500 ft 280° 280° 12 - 20 kt METAR KRFD 282054Z 28012G20KT 10SM FEW036 SCT046 BKN075 BKN130 BKN250 18/13 A3001 RMK AO2 LTG DSNT N-SE RAB01E47 TSB04E19B20E24 SLP162 OCNL LTGICCC DSNT E-SE CB DSNT E-SE MOV SE P0012 60013 T01780133 53009 $
15:30
V
17 °C 6 mi 4.800 ft 290° 290° 12 kt METAR KRFD 282030Z 29012KT 6SM VCTS -RA FEW034 BKN048 OVC060 17/13 A3000 RMK AO2 LTG DSNT NE AND SE RAB01 TSB04E19B20E24 P0011 T01670133 $
15:10
V
18 °C 9 mi 4.700 ft 250° 250° 13 - 20 kt METAR KRFD 282010Z 25013G20KT 9SM -TSRA SCT037 BKN047CB OVC055 18/13 A2998 RMK AO2 LTG DSNT NE AND SE RAB01 TSB04 OCNL LTGIC NW TS NW MOV SE P0004 T01780128 $
14:54
V
19 °C 10 mi 5.500 ft 270° 270° 12 - 18 kt METAR KRFD 281954Z 27012G18KT 10SM SCT043 BKN055 OVC100 19/13 A2998 RMK AO2 LTG DSNT N-SE RAB06E27 TSE42 SLP151 OCNL LTGIC DSNT SE CB DSNT SE MOV SE P0001 T01940128 $
13:54
V
21 °C 10 mi 10.000 ft 280° 280° 12 kt METAR KRFD 281854Z 28012KT 10SM TS SCT041CB BKN100 OVC250 21/12 A2999 RMK AO2 TSB53 SLP153 OCNL LTGIC SE TS SE MOV SE T02110117
12:54
V
21 °C 10 mi 7.500 ft 300° 300° 9 kt METAR KRFD 281754Z 30009KT 10SM SCT039 BKN075 BKN085 BKN250 21/12 A2999 RMK AO2 SLP154 T02060117 10206 20128 53004 PNO $
11:54
V
20 °C 10 mi 3.300 ft 300° 300° 12 kt METAR KRFD 281654Z 30012KT 10SM BKN033 BKN050 BKN250 20/13 A2998 RMK AO2 SLP151 T02000128 PNO $
10:54
V
19 °C 10 mi - 300° 300° 5 kt METAR KRFD 281554Z 30005KT 10SM SCT028 SCT250 19/13 A2997 RMK AO2 SLP148 T01890133 PNO $
09:54
V
18 °C 10 mi - 270° 270° 8 kt METAR KRFD 281454Z 27008KT 10SM FEW020 FEW250 18/13 A2998 RMK AO2 SLP150 T01830128 50002
08:54
V
17 °C 10 mi - 280° 280° 6 kt METAR KRFD 281354Z 28006KT 10SM FEW020 FEW250 17/12 A2998 RMK AO2 SLP153 T01670122
07:54
V
15 °C 10 mi - 300° 300° 6 kt METAR KRFD 281254Z 30006KT 10SM FEW250 15/12 A2998 RMK AO2 SLP150 T01500117
06:54
V
13 °C 10 mi - 250° 250° 4 kt METAR KRFD 281154Z 25004KT 10SM CLR 13/12 A2997 RMK AO2 SLP148 T01280117 10144 20117 51015 $
05:54
V
12 °C 10 mi - 360° 360° 0 kt METAR KRFD 281054Z 00000KT 10SM CLR 12/11 A2997 RMK AO2 SLP146 T01170111 $
04:54
V
12 °C 10 mi - 360° 360° 0 kt METAR KRFD 280954Z 00000KT 10SM FEW065 12/11 A2994 RMK AO2 SLP139 T01170111 $
03:54
V
12 °C 10 mi - 260° 260° 4 kt METAR KRFD 280854Z 26004KT 10SM FEW065 12/11 A2993 RMK AO2 SLP132 T01220111 53004 $
02:54
V
13 °C 10 mi 7.000 ft 280° 280° 6 kt METAR KRFD 280754Z 28006KT 10SM BKN070 OVC095 13/12 A2992 RMK AO2 SLP128 T01330122 $
01:54
V
14 °C 10 mi 7.500 ft 260° 260° 5 kt METAR KRFD 280654Z 26005KT 10SM OVC075 14/12 A2991 RMK AO2 SLP126 T01390122 $
00:54
V
13 °C 10 mi 7.500 ft 290° 290° 5 kt METAR KRFD 280554Z 29005KT 10SM BKN075 BKN090 13/12 A2992 RMK AO2 SLP128 60000 T01330122 10211 20133 402390133 51008 $

27 mei 2024

Tijd Code Weer Temp. Zicht Plafond Wind METAR/SPECI
23:54
V
13 °C 10 mi - 360° 360° 0 kt METAR KRFD 280454Z 00000KT 10SM FEW120 13/12 A2991 RMK AO2 SLP126 T01330122 $
22:54
V
14 °C 10 mi - 320° 320° 4 kt METAR KRFD 280354Z 32004KT 10SM FEW120 14/12 A2990 RMK AO2 SLP125 T01390122 $
21:54
V
14 °C 10 mi - 010° 010° 4 kt METAR KRFD 280254Z 01004KT 10SM SCT120 14/12 A2989 RMK AO2 SLP121 60000 T01390117 51022 $
20:54
V
14 °C 10 mi 12.000 ft Var Var 3 kt METAR KRFD 280154Z VRB03KT 10SM FEW090 BKN120 14/12 A2987 RMK AO2 RAE33 SLP114 P0000 T01440122 $
19:54
V
19 °C 10 mi 9.000 ft 260° 260° 18 - 38 kt METAR KRFD 280054Z 26018G38KT 10SM -RA BKN090 OVC110 19/12 A2986 RMK AO2 PK WND 25038/0047 RAB31 SLP111 P0000 T01940117 $
18:54
V
21 °C 10 mi 9.000 ft 260° 260° 8 kt METAR KRFD 272354Z 26008KT 10SM BKN090 OVC240 21/11 A2982 RMK AO2 SLP098 TCU DSNT NE T02060106 10239 20206 53015 $
17:54
V
22 °C 10 mi - 290° 290° 13 kt METAR KRFD 272254Z 29013KT 10SM FEW045 FEW095 SCT240 22/09 A2981 RMK AO2 SLP091 T02220094 $
16:54
V
23 °C 10 mi - 290° 290° 12 kt METAR KRFD 272154Z 29012KT 10SM FEW045 FEW095 FEW200 23/12 A2979 RMK AO2 SLP086 T02280117 $
15:54
V
23 °C 10 mi 9.500 ft 300° 300° 16 - 22 kt METAR KRFD 272054Z 30016G22KT 10SM FEW060 BKN095 23/12 A2978 RMK AO2 PK WND 28026/2029 SLP082 T02280117 51009 $
14:54
V
23 °C 10 mi 5.500 ft 290° 290° 17 - 24 kt METAR KRFD 271954Z 29017G24KT 10SM BKN055 BKN120 23/11 A2978 RMK AO2 PK WND 29028/1905 SLP081 T02280111 $
13:54
V
23 °C 10 mi 5.000 ft 280° 280° 14 - 26 kt METAR KRFD 271854Z 28014G26KT 10SM BKN050 BKN250 23/12 A2977 RMK AO2 PK WND 30027/1828 SLP077 T02280117 $
12:54
V
23 °C 10 mi - 310° 310° 19 - 27 kt METAR KRFD 271754Z 31019G27KT 10SM SCT045 23/13 A2975 RMK AO2 PK WND 30027/1749 SLP073 T02280128 10228 20139 53015 $
11:54
V
22 °C 10 mi - 300° 300° 14 - 23 kt METAR KRFD 271654Z 30014G23KT 10SM FEW034 22/13 A2974 RMK AO2 PK WND 29028/1600 SLP067 T02170128 $
10:54
V
21 °C 10 mi - 310° 310° 14 - 22 kt METAR KRFD 271554Z 31014G22KT 10SM SCT030 21/13 A2972 RMK AO2 SLP063 T02060128 $
10:06
V
18 °C 10 mi - 300° 300° 14 kt METAR KRFD 271506Z 30014KT 10SM SCT025 18/12 A2971 RMK AO2 T01780117 $
09:54
M
17 °C 10 mi 2.100 ft 310° 310° 14 - 22 kt METAR KRFD 271454Z 31014G22KT 10SM BKN021 17/12 A2971 RMK AO2 SLP060 T01670117 53021 $
08:54
M
16 °C 10 mi 1.900 ft 310° 310° 11 - 19 kt METAR KRFD 271354Z 31011G19KT 10SM OVC019 16/12 A2969 RMK AO2 SLP053 T01610117 $
07:54
M
14 °C 10 mi 1.800 ft 310° 310° 13 - 20 kt METAR KRFD 271254Z 31013G20KT 10SM OVC018 14/12 A2966 RMK AO2 SLP042 T01440117 $
06:54
M
14 °C 10 mi 1.700 ft 290° 290° 14 - 20 kt METAR KRFD 271154Z 29014G20KT 10SM BKN017 OVC027 14/12 A2965 RMK AO2 RAE20 SLP036 P0000 60000 70044 T01390117 10150 20139 51012 $
05:54
M
14 °C 10 mi 1.600 ft 290° 290° 12 kt METAR KRFD 271054Z 29012KT 10SM -RA OVC016 14/12 A2963 RMK AO2 RAB33 SLP031 P0000 T01390122 $
05:13
M
14 °C 10 mi 1.400 ft 290° 290° 13 kt METAR KRFD 271013Z 29013KT 10SM BKN014 OVC022 14/12 A2961 RMK AO2 T01390122 $
04:54
M
14 °C 10 mi 1.600 ft 290° 290° 12 kt METAR KRFD 270954Z 29012KT 10SM BKN016 OVC022 14/12 A2961 RMK AO2 RAE08B28E51 SLP022 P0000 T01390122 $
04:13
M
14 °C 10 mi 1.500 ft 300° 300° 12 - 21 kt METAR KRFD 270913Z 30012G21KT 10SM OVC015 14/12 A2959 RMK AO2 RAE08 P0000 T01390122 $
03:54
M
14 °C 10 mi 1.200 ft 300° 300° 12 - 21 kt METAR KRFD 270854Z 30012G21KT 10SM -RA OVC012 14/12 A2959 RMK AO2 RAE20B50 SLP016 P0000 60000 T01390122 53001 $
02:54
M
14 °C 10 mi 1.300 ft 280° 280° 13 - 21 kt METAR KRFD 270754Z 28013G21KT 10SM -RA BKN013 OVC019 14/13 A2956 RMK AO2 SLP009 P0000 T01390128 $
01:54
M
14 °C 10 mi 1.000 ft 280° 280° 13 - 21 kt METAR KRFD 270654Z 28013G21KT 10SM -RA OVC010 14/13 A2958 RMK AO2 SLP014 P0000 T01390128 $
00:54
M
14 °C 9 mi 1.300 ft 270° 270° 10 - 18 kt METAR KRFD 270554Z 27010G18KT 9SM -RA BKN013 OVC018 14/12 A2958 RMK AO2 PK WND 29026/0510 RAB46 SLP017 P0000 60000 T01390122 10194 20139 402440117 53007 $
Wijziging doorgeven